Location: Fontenoy
(49.4072°N, 3.2008°E)
Time: 11:42:54
(UTC+00:00)

Lacrosse 4 Rocket - Pass Details

Date: 15 May 2026
Orbit: 504 x 567 km, 68.0° (Epoch: 9 June)

Event Time Altitude Azimuth Distance (km) Brightness Sun altitude
Exits shadow 22:42:55 12° 87° (E) 1,658 3.6 -20.2°
Drops below altitude 10° 22:43:45 10° 75° (ENE) 1,803 3.9 -20.3°
Sets 22:46:54 0° 50° (NE) 2,718 5.2 -20.4°
